Location: Newark
(46.9000°N, 28.3500°E)
Time: 14:18:13
(UTC+00:00)

Explorer 7 - Pass Details

Date: 27 August 2019
Orbit: 485 x 680 km, 50.3° (Epoch: 17 September)

Event Time Altitude Azimuth Distance (km) Brightness Sun altitude
Rises 11:35:55 0° 292° (WNW) 2,917 10.6 48.7°
Reaches altitude 10° 11:38:22 10° 286° (WNW) 1,975 9.9 48.5°
Maximum altitude 11:42:40 44° 215° (SW) 813 11.1 48.1°
Drops below altitude 10° 11:46:41 10° 142° (SE) 1,846 9.8 47.7°
Sets 11:48:55 0° 136° (SE) 2,704 10.4 47.4°
